Time,TemperatureF,DewpointF,PressureIn,WindDirection,WindDirectionDegrees,WindSpeedMPH,WindSpeedGustMPH,Humidity,HourlyPrecipIn,Conditions,Clouds,dailyrainin,SoftwareType,DateUTC
2013-08-30 00:01:00,74.2,60.0,29.86,NE,44,0.0,-999.0,59,-99.99,,,0.00,Homebuilt-Script,2013-08-30 07:01:00,
2013-08-30 00:11:00,74.2,60.0,29.86,West,280,1.0,-999.0,59,-99.99,,,0.00,Homebuilt-Script,2013-08-30 07:11:00,
2013-08-30 00:21:00,74.0,60.0,29.86,NW,313,2.0,-999.0,59,-99.99,,,0.00,Homebuilt-Script,2013-08-30 07:21:00,
2013-08-30 00:31:00,73.6,60.0,29.86,South,179,0.0,-999.0,61,-99.99,,,0.00,Homebuilt-Script,2013-08-30 07:31:00,
2013-08-30 00:41:00,73.5,60.0,29.86,West,268,1.0,-999.0,60,-99.99,,,0.00,Homebuilt-Script,2013-08-30 07:41:00,
2013-08-30 00:51:00,73.3,59.0,29.86,WNW,284,1.0,-999.0,61,-99.99,,,0.00,Homebuilt-Script,2013-08-30 07:51:00,
2013-08-30 01:01:00,72.9,60.0,29.86,West,268,0.0,-999.0,62,-99.99,,,0.00,Homebuilt-Script,2013-08-30 08:01:00,
2013-08-30 01:11:00,72.7,60.0,29.86,West,268,1.0,-999.0,63,-99.99,,,0.00,Homebuilt-Script,2013-08-30 08:11:00,
2013-08-30 01:21:00,72.6,60.0,29.86,South,179,0.0,-999.0,63,-99.99,,,0.00,Homebuilt-Script,2013-08-30 08:21:00,
2013-08-30 01:31:00,72.4,59.0,29.86,South,179,1.0,-999.0,63,-99.99,,,0.00,Homebuilt-Script,2013-08-30 08:31:00,
2013-08-30 01:41:00,71.8,60.0,29.85,NE,44,0.0,-999.0,65,-99.99,,,0.00,Homebuilt-Script,2013-08-30 08:41:00,
2013-08-30 01:51:00,71.7,60.0,29.85,NE,44,0.0,-999.0,65,-99.99,,,0.00,Homebuilt-Script,2013-08-30 08:51:00,
2013-08-30 02:01:00,71.3,59.0,29.85,NE,44,0.0,-999.0,65,-99.99,,,0.00,Homebuilt-Script,2013-08-30 09:01:00,
2013-08-30 02:11:00,71.1,59.0,29.85,NE,41,0.0,-999.0,65,-99.99,,,0.00,Homebuilt-Script,2013-08-30 09:11:00,
2013-08-30 02:21:00,70.8,61.0,29.84,NE,44,1.0,-999.0,70,-99.99,,,0.00,Homebuilt-Script,2013-08-30 09:21:00,
2013-08-30 02:31:00,70.4,59.0,29.85,NE,44,0.0,-999.0,69,-99.99,,,0.00,Homebuilt-Script,2013-08-30 09:31:00,
2013-08-30 02:41:00,70.4,59.0,29.84,NE,44,0.0,-999.0,67,-99.99,,,0.00,Homebuilt-Script,2013-08-30 09:41:00,
2013-08-30 02:51:00,70.4,59.0,29.84,NE,44,0.0,-999.0,67,-99.99,,,0.00,Homebuilt-Script,2013-08-30 09:51:00,
2013-08-30 03:01:00,70.2,59.0,29.84,East,80,0.0,-999.0,68,-99.99,,,0.00,Homebuilt-Script,2013-08-30 10:01:00,
2013-08-30 03:11:00,70.0,60.0,29.85,ENE,78,0.0,-999.0,70,-99.99,,,0.00,Homebuilt-Script,2013-08-30 10:11:00,
2013-08-30 03:21:00,69.7,60.0,29.84,NE,44,0.0,-999.0,70,-99.99,,,0.00,Homebuilt-Script,2013-08-30 10:21:00,
2013-08-30 03:31:00,69.7,60.0,29.84,NE,44,0.0,-999.0,70,-99.99,,,0.00,Homebuilt-Script,2013-08-30 10:31:00,
2013-08-30 03:41:00,69.7,59.0,29.84,NE,44,0.0,-999.0,69,-99.99,,,0.00,Homebuilt-Script,2013-08-30 10:41:00,
2013-08-30 03:51:00,69.7,60.0,29.84,East,85,0.0,-999.0,70,-99.99,,,0.00,Homebuilt-Script,2013-08-30 10:51:00,
2013-08-30 04:01:00,69.7,60.0,29.84,East,80,0.0,-999.0,70,-99.99,,,0.00,Homebuilt-Script,2013-08-30 11:01:00,
2013-08-30 04:11:00,69.5,60.0,29.83,NNW,340,0.0,-999.0,70,-99.99,,,0.00,Homebuilt-Script,2013-08-30 11:11:00,
2013-08-30 04:21:00,69.5,60.0,29.83,South,179,0.0,-999.0,70,-99.99,,,0.00,Homebuilt-Script,2013-08-30 11:21:00,
2013-08-30 04:31:00,69.3,59.0,29.83,South,179,0.0,-999.0,70,-99.99,,,0.00,Homebuilt-Script,2013-08-30 11:31:00,
2013-08-30 04:41:00,69.1,59.0,29.83,East,85,0.0,-999.0,72,-99.99,,,0.00,Homebuilt-Script,2013-08-30 11:41:00,
2013-08-30 04:51:00,69.0,59.0,29.83,NE,44,1.0,-999.0,72,-99.99,,,0.00,Homebuilt-Script,2013-08-30 11:51:00,
2013-08-30 05:01:00,68.8,60.0,29.84,ENE,75,1.0,-999.0,74,-99.99,,,0.00,Homebuilt-Script,2013-08-30 12:01:00,
2013-08-30 05:11:00,68.8,59.0,29.83,NE,44,0.0,-999.0,72,-99.99,,,0.00,Homebuilt-Script,2013-08-30 12:11:00,
2013-08-30 05:21:00,68.8,59.0,29.84,NE,44,1.0,-999.0,71,-99.99,,,0.00,Homebuilt-Script,2013-08-30 12:21:00,
2013-08-30 05:31:00,68.6,59.0,29.83,NE,44,0.0,-999.0,70,-99.99,,,0.00,Homebuilt-Script,2013-08-30 12:31:00,
2013-08-30 05:41:00,68.8,59.0,29.84,NE,44,1.0,-999.0,70,-99.99,,,0.00,Homebuilt-Script,2013-08-30 12:41:00,
2013-08-30 05:51:00,69.0,58.0,29.85,NE,44,0.0,-999.0,68,-99.99,,,0.00,Homebuilt-Script,2013-08-30 12:51:00,
2013-08-30 06:01:00,69.0,58.0,29.85,NW,313,0.0,-999.0,67,-99.99,,,0.00,Homebuilt-Script,2013-08-30 13:01:00,
2013-08-30 06:11:00,69.1,57.0,29.85,West,268,1.0,-999.0,66,-99.99,,,0.00,Homebuilt-Script,2013-08-30 13:11:00,
2013-08-30 06:21:00,69.1,57.0,29.85,NW,313,0.0,-999.0,66,-99.99,,,0.00,Homebuilt-Script,2013-08-30 13:21:00,
2013-08-30 06:31:00,69.1,57.0,29.85,WNW,291,0.0,-999.0,66,-99.99,,,0.00,Homebuilt-Script,2013-08-30 13:31:00,
2013-08-30 06:41:00,69.3,56.0,29.86,NE,41,0.0,-999.0,62,-99.99,,,0.00,Homebuilt-Script,2013-08-30 13:41:00,
2013-08-30 06:51:00,69.7,58.0,29.86,SE,134,0.0,-999.0,64,-99.99,,,0.00,Homebuilt-Script,2013-08-30 13:51:00,
2013-08-30 07:01:00,70.0,57.0,29.86,SE,134,1.0,-999.0,63,-99.99,,,0.00,Homebuilt-Script,2013-08-30 14:01:00,
2013-08-30 07:11:00,70.4,58.0,29.87,SE,134,0.0,-999.0,66,-99.99,,,0.00,Homebuilt-Script,2013-08-30 14:11:00,
2013-08-30 07:21:00,71.3,59.0,29.87,South,179,1.0,-999.0,64,-99.99,,,0.00,Homebuilt-Script,2013-08-30 14:21:00,
2013-08-30 07:31:00,72.0,59.0,29.87,ENE,78,0.0,-999.0,63,-99.99,,,0.00,Homebuilt-Script,2013-08-30 14:31:00,
2013-08-30 07:41:00,72.9,60.0,29.88,South,179,0.0,-999.0,63,-99.99,,,0.00,Homebuilt-Script,2013-08-30 14:41:00,
2013-08-30 07:51:00,74.0,61.0,29.88,East,83,0.0,-999.0,62,-99.99,,,0.00,Homebuilt-Script,2013-08-30 14:51:00,
2013-08-30 08:01:00,75.1,61.0,29.87,East,85,0.0,-999.0,60,-99.99,,,0.00,Homebuilt-Script,2013-08-30 15:01:00,
2013-08-30 08:11:00,76.5,62.0,29.88,SE,137,0.0,-999.0,60,-99.99,,,0.00,Homebuilt-Script,2013-08-30 15:11:00,
2013-08-30 08:21:00,77.6,62.0,29.88,ENE,78,0.0,-999.0,55,-99.99,,,0.00,Homebuilt-Script,2013-08-30 15:21:00,
2013-08-30 08:31:00,78.8,62.0,29.88,SE,134,1.0,-999.0,52,-99.99,,,0.00,Homebuilt-Script,2013-08-30 15:31:00,
2013-08-30 08:41:00,80.3,62.0,29.88,South,179,0.0,-999.0,50,-99.99,,,0.00,Homebuilt-Script,2013-08-30 15:41:00,
2013-08-30 08:51:00,81.7,63.0,29.88,NE,44,2.0,-999.0,47,-99.99,,,0.00,Homebuilt-Script,2013-08-30 15:51:00,
2013-08-30 09:01:00,83.2,65.0,29.88,SW,233,0.0,-999.0,49,-99.99,,,0.00,Homebuilt-Script,2013-08-30 16:01:00,
2013-08-30 09:11:00,84.4,65.0,29.88,ENE,71,1.0,-999.0,47,-99.99,,,0.00,Homebuilt-Script,2013-08-30 16:11:00,
2013-08-30 09:21:00,86.0,67.0,29.89,South,179,0.0,-999.0,47,-99.99,,,0.00,Homebuilt-Script,2013-08-30 16:21:00,
2013-08-30 09:31:00,87.8,69.0,29.89,SW,224,6.0,-999.0,47,-99.99,,,0.00,Homebuilt-Script,2013-08-30 16:31:00,
2013-08-30 09:41:00,88.6,70.0,29.89,SW,229,3.0,-999.0,46,-99.99,,,0.00,Homebuilt-Script,2013-08-30 16:41:00,
2013-08-30 09:51:00,88.0,69.0,29.89,WNW,284,6.0,-999.0,45,-99.99,,,0.00,Homebuilt-Script,2013-08-30 16:51:00,
2013-08-30 10:01:00,87.7,68.0,29.90,WNW,284,5.0,-999.0,42,-99.99,,,0.00,Homebuilt-Script,2013-08-30 17:01:00,
2013-08-30 10:11:00,87.7,68.0,29.89,NW,306,6.0,-999.0,43,-99.99,,,0.00,Homebuilt-Script,2013-08-30 17:11:00,
2013-08-30 10:21:00,87.8,68.0,29.89,WNW,291,4.0,-999.0,42,-99.99,,,0.00,Homebuilt-Script,2013-08-30 17:21:00,
2013-08-30 10:31:00,88.4,68.0,29.89,SW,224,8.0,-999.0,42,-99.99,,,0.00,Homebuilt-Script,2013-08-30 17:31:00,
2013-08-30 10:41:00,89.1,68.0,29.89,SSW,212,4.0,-999.0,41,-99.99,,,0.00,Homebuilt-Script,2013-08-30 17:41:00,
2013-08-30 10:51:00,90.0,69.0,29.89,SW,224,4.0,-999.0,40,-99.99,,,0.00,Homebuilt-Script,2013-08-30 17:51:00,
2013-08-30 11:01:00,90.7,70.0,29.89,SW,224,2.0,-999.0,39,-99.99,,,0.00,Homebuilt-Script,2013-08-30 18:01:00,
2013-08-30 11:11:00,91.8,70.0,29.89,West,268,5.0,-999.0,38,-99.99,,,0.00,Homebuilt-Script,2013-08-30 18:11:00,
2013-08-30 11:21:00,92.7,71.0,29.89,SW,220,5.0,-999.0,38,-99.99,,,0.00,Homebuilt-Script,2013-08-30 18:21:00,
2013-08-30 11:31:00,93.8,71.0,29.89,SW,216,7.0,-999.0,36,-99.99,,,0.00,Homebuilt-Script,2013-08-30 18:31:00,
2013-08-30 11:41:00,94.1,71.0,29.89,SW,227,4.0,-999.0,35,-99.99,,,0.00,Homebuilt-Script,2013-08-30 18:41:00,
2013-08-30 11:51:00,94.8,71.0,29.89,SW,220,8.0,-999.0,33,-99.99,,,0.00,Homebuilt-Script,2013-08-30 18:51:00,
2013-08-30 12:01:00,95.6,72.0,29.88,SW,216,7.0,-999.0,33,-99.99,,,0.00,Homebuilt-Script,2013-08-30 19:01:00,
2013-08-30 12:11:00,96.5,72.0,29.88,SW,234,11.0,-999.0,32,-99.99,,,0.00,Homebuilt-Script,2013-08-30 19:11:00,
2013-08-30 12:21:00,97.0,73.0,29.88,SW,229,11.0,-999.0,31,-99.99,,,0.00,Homebuilt-Script,2013-08-30 19:21:00,
2013-08-30 12:31:00,97.7,74.0,29.87,SSW,209,9.0,-999.0,31,-99.99,,,0.00,Homebuilt-Script,2013-08-30 19:31:00,
2013-08-30 12:41:00,97.5,74.0,29.87,SW,224,7.0,-999.0,31,-99.99,,,0.00,Homebuilt-Script,2013-08-30 19:41:00,
2013-08-30 12:51:00,97.4,73.0,29.86,WSW,246,10.0,-999.0,32,-99.99,,,0.00,Homebuilt-Script,2013-08-30 19:51:00,
2013-08-30 13:01:00,97.2,74.0,29.86,SW,234,10.0,-999.0,34,-99.99,,,0.00,Homebuilt-Script,2013-08-30 20:01:00,
2013-08-30 13:11:00,97.2,74.0,29.86,West,272,4.0,-999.0,34,-99.99,,,0.00,Homebuilt-Script,2013-08-30 20:11:00,
2013-08-30 13:21:00,97.4,74.0,29.86,SW,233,8.0,-999.0,35,-99.99,,,0.00,Homebuilt-Script,2013-08-30 20:21:00,
2013-08-30 13:31:00,97.2,74.0,29.86,SW,234,9.0,-999.0,36,-99.99,,,0.00,Homebuilt-Script,2013-08-30 20:31:00,
2013-08-30 13:41:00,96.6,74.0,29.86,WNW,296,7.0,-999.0,36,-99.99,,,0.00,Homebuilt-Script,2013-08-30 20:41:00,
2013-08-30 13:51:00,96.5,73.0,29.86,SW,219,5.0,-999.0,36,-99.99,,,0.00,Homebuilt-Script,2013-08-30 20:51:00,
2013-08-30 14:01:00,95.9,73.0,29.86,SSW,200,7.0,-999.0,36,-99.99,,,0.00,Homebuilt-Script,2013-08-30 21:01:00,
2013-08-30 14:11:00,95.2,73.0,29.86,SW,229,9.0,-999.0,38,-99.99,,,0.00,Homebuilt-Script,2013-08-30 21:11:00,
2013-08-30 14:21:00,94.5,72.0,29.86,SSW,212,8.0,-999.0,38,-99.99,,,0.00,Homebuilt-Script,2013-08-30 21:21:00,
2013-08-30 14:31:00,93.9,72.0,29.86,WNW,291,7.0,-999.0,38,-99.99,,,0.00,Homebuilt-Script,2013-08-30 21:31:00,
2013-08-30 14:41:00,94.1,72.0,29.85,WSW,254,8.0,-999.0,38,-99.99,,,0.00,Homebuilt-Script,2013-08-30 21:41:00,
2013-08-30 14:51:00,93.8,73.0,29.85,WSW,254,7.0,-999.0,39,-99.99,,,0.00,Homebuilt-Script,2013-08-30 21:51:00,
2013-08-30 15:01:00,93.4,72.0,29.85,WNW,291,6.0,-999.0,39,-99.99,,,0.00,Homebuilt-Script,2013-08-30 22:01:00,
2013-08-30 15:11:00,93.0,72.0,29.85,WSW,246,4.0,-999.0,40,-99.99,,,0.00,Homebuilt-Script,2013-08-30 22:11:00,
2013-08-30 15:21:00,92.9,72.0,29.85,SSW,200,6.0,-999.0,39,-99.99,,,0.00,Homebuilt-Script,2013-08-30 22:21:00,
2013-08-30 15:31:00,92.3,71.0,29.85,WNW,291,9.0,-999.0,39,-99.99,,,0.00,Homebuilt-Script,2013-08-30 22:31:00,
2013-08-30 15:41:00,92.1,71.0,29.85,SW,224,6.0,-999.0,40,-99.99,,,0.00,Homebuilt-Script,2013-08-30 22:41:00,
2013-08-30 15:51:00,92.3,71.0,29.85,WSW,246,9.0,-999.0,39,-99.99,,,0.00,Homebuilt-Script,2013-08-30 22:51:00,
2013-08-30 16:01:00,92.3,70.0,29.85,SW,230,12.0,-999.0,38,-99.99,,,0.00,Homebuilt-Script,2013-08-30 23:01:00,
2013-08-30 16:11:00,92.3,70.0,29.85,WSW,257,5.0,-999.0,38,-99.99,,,0.00,Homebuilt-Script,2013-08-30 23:11:00,
2013-08-30 16:21:00,92.5,70.0,29.85,West,261,5.0,-999.0,38,-99.99,,,0.00,Homebuilt-Script,2013-08-30 23:21:00,
2013-08-30 16:31:00,92.3,71.0,29.85,SW,224,5.0,-999.0,39,-99.99,,,0.00,Homebuilt-Script,2013-08-30 23:31:00,
2013-08-30 16:41:00,92.1,70.0,29.85,SSW,193,7.0,-999.0,38,-99.99,,,0.00,Homebuilt-Script,2013-08-30 23:41:00,
2013-08-30 16:51:00,92.0,70.0,29.85,West,265,4.0,-999.0,38,-99.99,,,0.00,Homebuilt-Script,2013-08-30 23:51:00,
2013-08-30 17:01:00,91.6,70.0,29.85,WSW,256,5.0,-999.0,38,-99.99,,,0.00,Homebuilt-Script,2013-08-31 00:01:00,
2013-08-30 17:11:00,92.1,70.0,29.84,SW,215,6.0,-999.0,37,-99.99,,,0.00,Homebuilt-Script,2013-08-31 00:11:00,
2013-08-30 17:21:00,92.1,70.0,29.84,SW,224,3.0,-999.0,37,-99.99,,,0.00,Homebuilt-Script,2013-08-31 00:21:00,
2013-08-30 17:31:00,92.1,70.0,29.84,SW,227,4.0,-999.0,37,-99.99,,,0.00,Homebuilt-Script,2013-08-31 00:31:00,
2013-08-30 17:41:00,92.0,70.0,29.85,SW,236,2.0,-999.0,37,-99.99,,,0.00,Homebuilt-Script,2013-08-31 00:41:00,
2013-08-30 17:51:00,92.0,69.0,29.85,SW,233,3.0,-999.0,36,-99.99,,,0.00,Homebuilt-Script,2013-08-31 00:51:00,
2013-08-30 18:01:00,91.6,70.0,29.85,WSW,246,5.0,-999.0,38,-99.99,,,0.00,Homebuilt-Script,2013-08-31 01:01:00,
2013-08-30 18:11:00,91.1,69.0,29.86,SW,227,2.0,-999.0,38,-99.99,,,0.00,Homebuilt-Script,2013-08-31 01:11:00,
2013-08-30 18:21:00,90.7,70.0,29.85,SW,227,5.0,-999.0,39,-99.99,,,0.00,Homebuilt-Script,2013-08-31 01:21:00,
2013-08-30 18:31:00,90.2,68.0,29.86,SW,233,4.0,-999.0,38,-99.99,,,0.00,Homebuilt-Script,2013-08-31 01:31:00,
2013-08-30 18:41:00,89.8,69.0,29.85,SSW,206,2.0,-999.0,39,-99.99,,,0.00,Homebuilt-Script,2013-08-31 01:41:00,
2013-08-30 18:51:00,89.3,68.0,29.85,SW,233,2.0,-999.0,40,-99.99,,,0.00,Homebuilt-Script,2013-08-31 01:51:00,
2013-08-30 19:01:00,88.9,68.0,29.86,SW,215,3.0,-999.0,39,-99.99,,,0.00,Homebuilt-Script,2013-08-31 02:01:00,
2013-08-30 19:11:00,88.4,67.0,29.86,SW,234,5.0,-999.0,41,-99.99,,,0.00,Homebuilt-Script,2013-08-31 02:11:00,
2013-08-30 19:21:00,87.7,68.0,29.86,SW,232,2.0,-999.0,43,-99.99,,,0.00,Homebuilt-Script,2013-08-31 02:21:00,
2013-08-30 19:31:00,87.3,67.0,29.86,SSW,200,1.0,-999.0,43,-99.99,,,0.00,Homebuilt-Script,2013-08-31 02:31:00,
2013-08-30 19:41:00,86.6,67.0,29.86,WNW,284,2.0,-999.0,44,-99.99,,,0.00,Homebuilt-Script,2013-08-31 02:41:00,
2013-08-30 19:51:00,86.2,66.0,29.87,WNW,284,1.0,-999.0,44,-99.99,,,0.00,Homebuilt-Script,2013-08-31 02:51:00,
2013-08-30 20:01:00,86.0,66.0,29.87,WNW,291,1.0,-999.0,44,-99.99,,,0.00,Homebuilt-Script,2013-08-31 03:01:00,
2013-08-30 20:11:00,85.7,66.0,29.87,NW,313,1.0,-999.0,44,-99.99,,,0.00,Homebuilt-Script,2013-08-31 03:11:00,
2013-08-30 20:21:00,85.7,67.0,29.87,West,268,1.0,-999.0,45,-99.99,,,0.00,Homebuilt-Script,2013-08-31 03:21:00,
2013-08-30 20:31:00,85.7,67.0,29.87,NW,313,0.0,-999.0,45,-99.99,,,0.00,Homebuilt-Script,2013-08-31 03:31:00,
2013-08-30 20:41:00,85.3,66.0,29.88,NW,313,0.0,-999.0,47,-99.99,,,0.00,Homebuilt-Script,2013-08-31 03:41:00,
2013-08-30 20:51:00,85.0,67.0,29.88,NW,313,0.0,-999.0,49,-99.99,,,0.00,Homebuilt-Script,2013-08-31 03:51:00,
2013-08-30 21:01:00,84.8,67.0,29.88,NW,305,0.0,-999.0,49,-99.99,,,0.00,Homebuilt-Script,2013-08-31 04:01:00,
2013-08-30 21:11:00,84.6,67.0,29.88,South,179,0.0,-999.0,48,-99.99,,,0.00,Homebuilt-Script,2013-08-31 04:11:00,
2013-08-30 21:21:00,84.8,66.0,29.88,SW,224,1.0,-999.0,47,-99.99,,,0.00,Homebuilt-Script,2013-08-31 04:21:00,
2013-08-30 21:31:00,84.4,66.0,29.88,SW,236,1.0,-999.0,48,-99.99,,,0.00,Homebuilt-Script,2013-08-31 04:31:00,
2013-08-30 21:41:00,84.2,65.0,29.88,SW,226,1.0,-999.0,47,-99.99,,,0.00,Homebuilt-Script,2013-08-31 04:41:00,
2013-08-30 21:51:00,84.1,66.0,29.88,West,280,2.0,-999.0,48,-99.99,,,0.00,Homebuilt-Script,2013-08-31 04:51:00,
2013-08-30 22:01:00,83.5,65.0,29.88,SW,234,1.0,-999.0,47,-99.99,,,0.00,Homebuilt-Script,2013-08-31 05:01:00,
2013-08-30 22:11:00,83.3,65.0,29.88,SW,229,1.0,-999.0,49,-99.99,,,0.00,Homebuilt-Script,2013-08-31 05:11:00,
2013-08-30 22:21:00,82.8,65.0,29.89,SW,227,0.0,-999.0,49,-99.99,,,0.00,Homebuilt-Script,2013-08-31 05:21:00,
2013-08-30 22:31:00,82.3,65.0,29.89,WNW,287,2.0,-999.0,52,-99.99,,,0.00,Homebuilt-Script,2013-08-31 05:31:00,
2013-08-30 22:41:00,83.5,66.0,29.89,South,179,1.0,-999.0,49,-99.99,,,0.00,Homebuilt-Script,2013-08-31 05:41:00,
2013-08-30 22:51:00,83.7,66.0,29.89,South,179,1.0,-999.0,49,-99.99,,,0.00,Homebuilt-Script,2013-08-31 05:51:00,
2013-08-30 23:01:00,83.7,66.0,29.89,South,179,1.0,-999.0,49,-99.99,,,0.00,Homebuilt-Script,2013-08-31 06:01:00,
2013-08-30 23:11:00,83.0,65.0,29.89,SW,219,1.0,-999.0,49,-99.99,,,0.00,Homebuilt-Script,2013-08-31 06:11:00,
2013-08-30 23:21:00,82.6,65.0,29.89,South,179,0.0,-999.0,50,-99.99,,,0.00,Homebuilt-Script,2013-08-31 06:21:00,
2013-08-30 23:31:00,82.1,64.0,29.89,SW,227,1.0,-999.0,48,-99.99,,,0.00,Homebuilt-Script,2013-08-31 06:31:00,
2013-08-30 23:41:00,81.2,64.0,29.89,South,179,0.0,-999.0,51,-99.99,,,0.00,Homebuilt-Script,2013-08-31 06:41:00,
2013-08-30 23:51:00,80.5,63.0,29.89,South,179,0.0,-999.0,51,-99.99,,,0.00,Homebuilt-Script,2013-08-31 06:51:00,